[ hide orbit diagram ]
For accurate long-term ephemerides, please instead use our Horizons system.This orbit viewer was implemented using two-body methods, and hence should not be used for determining accurate long-term trajectories (over several years or decades) or planetary encounter circumstances.
Orbital Elements at Epoch 2459000.5 (2020-May-31.0) TDB
Reference: JPL 30 (heliocentric ecliptic J2000)
Element | Value | Uncertainty (1-sigma) | Units |
e | .1777037825424081 | 5.3285e-08 | |
a | 2.774673889740545 | 1.3547e-08 | au |
q | 2.281603844211994 | 1.4611e-07 | au |
i | 8.078606962820183 | 4.6645e-06 | deg |
node | 307.2713072831001 | 2.9205e-05 | deg |
peri | 70.24602560045724 | 3.1348e-05 | deg |
M | 152.1830523523592 | 1.3334e-05 | deg |
tp | 2458286.858433724373 (2018-Jun-17.35843372) | 5.9945e-05 | TDB |
period | 1688.170659531675 4.62 | 1.2364e-05 3.385e-08 | d yr |
n | .2132485824033156 | 1.5618e-09 | deg/d |
Q | 3.267743935269096 | 1.5955e-08 | au |
|
| | Orbit Determination Parameters
Additional Information
|
[ show covariance matrix ]
Physical Parameter Table
Parameter |
Symbol |
Value |
Units |
Sigma |
Reference |
Notes |
absolute magnitude |
H |
13.4 |
|
n/a |
MPO459005 |
|
diameter |
diameter |
5.240 |
km |
0.107 |
urn:nasa:pds:neowise_diameters_albedos::2.0[mainbelt] (http://adsabs.harvard.edu/abs/2011ApJ...741...68M) |
|
rotation period |
rot_per |
9.66 |
h |
n/a |
LCDB (Rev. 2020-October); Warner et al., 2009 |
Published Reference List: [Aznar, A. (2013) Posting on CALL web site. http://www.MinorPlanet.info/call.html] |
geometric albedo |
albedo |
0.281 |
|
0.025 |
urn:nasa:pds:neowise_diameters_albedos::2.0[mainbelt] (http://adsabs.harvard.edu/abs/2011ApJ...741...68M) |
|
|
19994 Tresini | Discovered 1990 Oct. 13 by L. G. Karachkina and G. R. Kastel' at the Crimean Astrophysical Observatory. |
Dominico Tresini (c. 1670-1734), architect and engineer, worked in St. Petersburg beginning in 1703 and is regarded as the city's first architect. He built the Peter and Paul fortress, the Summer Palace of Peter I and the House of 12 Boards, which now houses St. Petersburg University. |
NOTE: some special characters may not display properly (any characters within {} are an attempt to place the proper accent above a character) |
Reference: 20030318/MPCPages.arc | Last Updated: 2003-10-02 |
|
[ show close-approach data ]
|